"Pseudo-MPEC" for P10IjS0

Created 2018 Jul 14 15:18:18 UT using Find_Orb

Click here for an explanation of pseudo-MPECs

 
 Astrometry: 
     P10IjS0  C2018 07 10L6AstrometryF/+xxb`]-9$6RVD*0LGU/wt='T8SD^=xD;w,V4mIF51
     P10IjS0  C2018 07 109^Uo(/S8\mkxBbYvgu9*s]yJC/_62RNhGWwTo3.=$,_A@5A-047*F51
     P10IjS0  C2018 07 10KjTHTm_fE3TFD,:?/1xop?5+:BO3$TIXHbDmOS:N9nh2#S0sIOb.F51
     P10IjS0  C2018 07 10D+JsJMvYP.'l-Nv`BJS78e:kvgn%PI5'vS+$*dT8E!Etw_pG8-9$F51
     P10IjS0 |C2018 07 12^TCRYs.]b5Ypu7_F8redacted;_G83DQ)kjk^HmBjN[\rL,vGCv`807
     P10IjS0 |C2018 07 12iiy6[242Ya=$._x3J4CPtsQp7a9kRt#f`sF=ZcAh#HAj]:,ZD'Tu807
     P10IjS0 |C2018 07 12y$g`=Xlk[YQ/Yniv62y8SD068K]w%Xv)y7FW)kmBu7EL'W%sdI)U807
     P10IjS0 KC2018 07 13bEEC_WshW0hhnY5d!7`l7fMHkF3;OB#uHr-YEOjV=Y$Pnh+`(RQn807
     P10IjS0 KC2018 07 13%y:LfU!.2P0hHqGnFl$=%\GsJS3-+U0o\^J8G6hW$k)9OrqGwSnJ807
     P10IjS0 KC2018 07 13W!8d,V@qN5-g:E4*4E/%NirXaiY8BMbSsee)518`_MnLA9:L'`5`807
     P10IjS0 KC2018 07 14h$X?GYWCa?wjtoY+-@D4hqV'e\/KqI:O(nn)NKM5D$Ys8#2:MJ(8474
     P10IjS0 KC2018 07 14`kdWnX`vLTTY-C$ev^;'2(O]dACU+U#=oDJZx)ABa,x^D98bAnt#474
     P10IjS0 KC2018 07 14w1g/vJyA3Se]3A.:(:8@^,X'Lu*I`qhoGl3F3!S^gKYve6W\Oc;O474
     P10IjS0 KC2018 07 14Dg$N7?yY4FKG8#GE;4pOd5kUmM*0h3U0l]!1]Zy]+!*wX+CNEOCP474

Station data:
(474) Mount John Observatory, Lake Tekapo  (S43.987388 E170.464960)  New
   Zealand.  Observers A. C. Gilmore, P. M. Kilmartin. Measurer P. M.
   Kilmartin. 1.0-m f/7.7 reflector + CCD.
(807) Cerro Tololo Observatory, La Serena  (S30.169136 W70.805900)  Chile.
   1.5-m Ritchey-Chrétien.
(F51) Pan-STARRS 1, Haleakala  (N20.707235 W156.255910)  US/Hawaii.
   Observers N. Primak, A. Schultz, S. Watters, J. Thiel, T. Goggia. Measurer
   PS1 Science Consortium. 1.8-m Ritchey-Chrétien + CCD.

Orbital elements:  P10IjS0
   Perihelion 2018 Sep 15.439141 +/- 0.291 TT = 10:32:21 (JD 2458376.939141)
Epoch 2018 Jul 14.0 TT = JDT 2458313.5   Earth MOID: 0.1067   Ma: 0.0127
M 340.14392 +/- 0.8                 (J2000 ecliptic)          AutoNEOCP
n   0.31299402 +/- 0.0119           Peri.   73.34467 +/- 0.19
a   2.14838454 +/- 0.0543           Node   295.64466 +/- 0.017
e   0.5916759 +/- 0.0104            Incl.   21.06391 +/- 0.26
P   3.15                   H 23.7   G  0.15   U  9.8  
q 0.87723717 +/- 0.000354    Q 3.41953191 +/- 0.111
From 14 observations 2018 July 10-14; mean residual 0".47
Residuals in arcseconds: 
180710 F51  .09-  .20+    180712 807  .05+  .04+    180714 474  .62-  .99+    
180710 F51  .05-  .04-    180712 807  .11+  .11+    180714 474  .22-  .26+    
180710 F51  .09+  .13-    180713 807  .36+  .52-    180714 474  .13-  1.7-    
180710 F51  .04-  .06-    180713 807  .25-  .37+    180714 474  .98+  .41+    
180712 807  .09+  .00     180713 807  .27-  .00     

Ephemerides (geocentric):
Date (UTC) HH   RA              Dec         delta   r     elong  mag " sig PA
---- -- -- --  -------------   -----------  ------ ------ -----  --- ---- ---
2018 07 14 15  20 30 51.614   -23 05 03.55  .20073 1.2129 166.9 21.3  .35  47
2018 07 14 16  20 30 48.479   -23 01 12.12  .20034 1.2125 167.0 21.3  .37  48
2018 07 14 17  20 30 45.331   -22 57 19.79  .19995 1.2122 167.0 21.3  .38  49
2018 07 14 18  20 30 42.171   -22 53 26.55  .19957 1.2118 167.1 21.2  .39  49
2018 07 14 19  20 30 38.999   -22 49 32.40  .19918 1.2115 167.1 21.2  .41  50
2018 07 14 20  20 30 35.813   -22 45 37.33  .19879 1.2111 167.2 21.2  .42  51
2018 07 14 21  20 30 32.615   -22 41 41.34  .19841 1.2108 167.2 21.2  .43  51
2018 07 14 22  20 30 29.405   -22 37 44.43  .19802 1.2105 167.3 21.2  .45  52
2018 07 14 23  20 30 26.181   -22 33 46.58  .19764 1.2101 167.3 21.2  .46  53
2018 07 15 00  20 30 22.945   -22 29 47.81  .19725 1.2098 167.4 21.2  .48  53
2018 07 15 01  20 30 19.696   -22 25 48.09  .19687 1.2094 167.4 21.2  .49  54
2018 07 15 02  20 30 16.434   -22 21 47.44  .19649 1.2091 167.5 21.2  .51  54
2018 07 15 03  20 30 13.160   -22 17 45.84  .19610 1.2087 167.5 21.2  .52  55
2018 07 15 04  20 30 09.872   -22 13 43.29  .19572 1.2084 167.6 21.2  .54  55
2018 07 15 05  20 30 06.572   -22 09 39.78  .19534 1.2080 167.6 21.2  .56  56
2018 07 15 06  20 30 03.259   -22 05 35.32  .19496 1.2077 167.7 21.2  .57  56
2018 07 15 07  20 29 59.932   -22 01 29.89  .19458 1.2073 167.7 21.2  .59  56
2018 07 15 08  20 29 56.593   -21 57 23.49  .19420 1.2070 167.8 21.2  .61  57
2018 07 15 09  20 29 53.240   -21 53 16.13  .19381 1.2066 167.9 21.2  .62  57
2018 07 15 10  20 29 49.875   -21 49 07.78  .19343 1.2063 167.9 21.1  .64  58
2018 07 15 11  20 29 46.496   -21 44 58.46  .19306 1.2060 168.0 21.1  .66  58
2018 07 15 12  20 29 43.105   -21 40 48.15  .19268 1.2056 168.0 21.1  .68  58
2018 07 15 13  20 29 39.700   -21 36 36.85  .19230 1.2053 168.1 21.1  .69  59
2018 07 15 14  20 29 36.282   -21 32 24.55  .19192 1.2049 168.1 21.1  .71  59
2018 07 15 15  20 29 32.850   -21 28 11.26  .19154 1.2046 168.1 21.1  .73  59
2018 07 15 16  20 29 29.406   -21 23 56.96  .19116 1.2042 168.2 21.1  .75  59
2018 07 15 17  20 29 25.948   -21 19 41.65  .19079 1.2039 168.2 21.1  .77  60
2018 07 15 18  20 29 22.476   -21 15 25.33  .19041 1.2035 168.3 21.1  .79  60
2018 07 15 19  20 29 18.992   -21 11 07.99  .19003 1.2032 168.3 21.1  .81  60
2018 07 15 20  20 29 15.494   -21 06 49.64  .18966 1.2028 168.4 21.1  .83  60
2018 07 15 21  20 29 11.982   -21 02 30.25  .18928 1.2025 168.4 21.1  .85  61
2018 07 15 22  20 29 08.457   -20 58 09.83  .18891 1.2022 168.5 21.1  .87  61
2018 07 15 23  20 29 04.919   -20 53 48.38  .18853 1.2018 168.5 21.1  .89  61
2018 07 16 00  20 29 01.367   -20 49 25.89  .18816 1.2015 168.6 21.1  .91  61
2018 07 16 01  20 28 57.801   -20 45 02.35  .18779 1.2011 168.6 21.0  .93  61
2018 07 16 02  20 28 54.222   -20 40 37.76  .18741 1.2008 168.7 21.0  .95  62
2018 07 16 03  20 28 50.629   -20 36 12.11  .18704 1.2004 168.7 21.0  .97  62
2018 07 16 04  20 28 47.022   -20 31 45.41  .18667 1.2001 168.8 21.0  1.0  62
2018 07 16 05  20 28 43.402   -20 27 17.64  .18630 1.1997 168.8 21.0  1.0  62
2018 07 16 06  20 28 39.768   -20 22 48.80  .18593 1.1994 168.9 21.0  1.0  62
2018 07 16 07  20 28 36.120   -20 18 18.88  .18556 1.1990 168.9 21.0  1.1  62
2018 07 16 08  20 28 32.458   -20 13 47.89  .18519 1.1987 168.9 21.0  1.1  62
2018 07 16 09  20 28 28.782   -20 09 15.82  .18482 1.1984 169.0 21.0  1.1  63
2018 07 16 10  20 28 25.093   -20 04 42.65  .18445 1.1980 169.0 21.0  1.1  63
2018 07 16 11  20 28 21.389   -20 00 08.39  .18408 1.1977 169.1 21.0  1.2  63
2018 07 16 12  20 28 17.672   -19 55 33.03  .18371 1.1973 169.1 21.0  1.2  63
2018 07 16 13  20 28 13.940   -19 50 56.57  .18334 1.1970 169.1 21.0  1.2  63
2018 07 16 14  20 28 10.194   -19 46 19.00  .18297 1.1966 169.2 21.0  1.2  63